Theta_e
332 331 328 328 329 329 330 331 332 331 330 330 330 330 329 329 329 329 330 330 328 328 328 329 329 330 331 333 333 331 329 329 329 328 328 328 328 329 330 330 330 330 328 327 327 325 325 324 322 321 320 320 321 321 321 320 320 320 318 315 312 312 312 313 314 315 315 315 317 317 316 316 317 318 318 318 316 318 320 320 319 319 318 318 319
331 330 329 329 329 330 331 331 331 331 331 330 330 330 330 329 330 330 329 329 328 327 329 329 329 329 330 332 333 331 329 329 328 328 328 328 328 330 330 330 329 329 329 329 328 328 328 326 325 324 323 322 323 324 323 322 321 320 319 316 314 313 313 313 313 311 310 310 311 310 310 311 313 315 317 318 315 316 319 320 319 319 318 316 317
332 331 330 329 330 331 331 331 331 331 330 330 330 331 331 330 330 330 329 329 328 327 329 330 330 329 330 332 333 331 330 329 328 329 329 329 329 330 330 330 329 329 329 329 328 328 329 327 327 327 326 324 324 324 324 324 323 322 321 319 316 313 312 311 311 309 308 308 307 306 306 307 307 308 311 313 312 313 316 318 319 319 319 316 316
332 332 331 331 331 331 331 332 331 331 330 330 331 331 331 330 329 329 328 328 328 327 328 330 330 329 331 332 333 331 329 329 329 330 330 329 329 330 330 330 329 329 328 328 327 328 328 328 327 327 327 325 323 324 325 324 324 323 321 320 317 314 313 312 311 312 312 312 311 310 309 307 306 305 306 308 309 309 312 315 316 318 318 316 316
333 333 332 331 332 332 332 332 331 331 330 331 331 331 330 330 329 328 327 327 327 327 328 329 330 331 331 333 333 331 329 330 330 330 331 330 329 330 330 330 329 328 328 326 326 327 328 327 326 326 326 324 323 326 327 326 325 323 321 320 319 318 317 316 316 316 317 318 319 319 318 315 313 310 307 306 306 306 307 308 311 313 315 313 313
333 333 332 332 332 332 332 332 331 331 331 331 331 331 331 330 329 328 327 327 327 327 327 329 330 331 332 332 332 330 331 330 328 329 331 330 329 330 329 329 329 328 327 327 327 327 328 327 327 326 325 325 326 328 328 328 327 326 324 323 322 322 321 321 321 321 321 322 323 324 323 323 322 319 316 315 312 308 306 306 306 308 310 310 311
333 333 332 332 332 332 332 331 331 332 332 331 331 331 330 330 329 328 327 327 327 327 327 328 329 330 331 331 331 331 332 330 327 329 330 330 330 329 329 329 329 328 327 328 328 328 328 327 327 327 327 328 328 328 328 328 328 328 327 327 327 326 325 324 324 324 324 324 325 325 325 325 325 325 324 323 321 316 310 307 306 305 306 308 311
333 333 332 332 332 332 332 332 332 332 332 331 331 331 330 330 329 327 327 327 327 327 327 328 329 330 330 331 331 331 331 329 327 328 329 329 330 329 329 329 329 328 328 329 328 328 328 328 328 328 328 328 328 328 328 328 329 329 329 329 329 329 328 328 327 326 326 326 326 326 326 326 326 326 326 326 326 323 318 313 310 308 306 306 308
333 332 332 332 332 332 332 332 332 332 331 331 331 331 330 330 329 328 327 327 327 328 328 328 329 330 331 331 331 331 331 329 327 327 329 330 330 330 329 329 328 328 329 329 329 328 328 328 328 328 328 328 328 328 329 329 329 329 329 329 329 329 329 330 329 329 328 327 327 328 327 327 327 327 327 326 327 326 324 321 318 315 314 310 306
332 332 332 332 333 332 332 332 332 332 331 331 331 331 330 329 329 328 327 327 328 328 328 329 329 330 331 331 331 331 330 328 327 329 330 330 329 330 330 329 328 328 328 328 328 328 328 328 328 328 328 328 328 328 329 329 329 329 329 329 329 328 329 330 329 329 329 329 329 329 328 328 328 327 327 327 327 327 327 326 324 322 321 318 312
332 332 332 332 332 332 332 332 332 332 331 331 331 331 330 329 329 328 327 327 327 328 328 329 329 330 330 331 330 330 329 327 328 330 330 329 329 329 329 329 328 328 328 327 327 327 326 327 327 328 328 328 328 327 327 327 327 328 329 329 329 328 328 329 329 329 328 329 329 329 328 328 328 328 328 328 327 327 327 327 327 326 325 324 319
332 332 332 332 332 332 332 332 332 332 332 331 331 331 330 329 328 328 328 327 327 328 328 328 328 329 330 331 330 330 329 327 327 329 329 329 329 328 328 328 328 327 327 327 327 326 327 327 327 327 328 328 327 324 323 323 323 325 327 328 328 328 328 328 328 328 327 328 328 327 327 327 328 328 328 328 327 327 327 327 327 327 327 326 324
332 332 333 332 332 332 332 332 332 332 331 331 331 331 330 329 329 328 328 327 327 327 327 327 328 329 329 330 329 329 329 328 327 329 330 329 328 327 328 328 328 328 327 327 327 328 328 327 327 327 327 326 324 322 322 321 320 322 326 328 328 328 328 328 328 328 327 327 327 326 326 325 325 326 326 326 326 326 326 327 327 327 327 327 326
333 332 333 332 332 332 332 332 332 331 331 331 331 331 330 330 329 328 328 327 327 327 327 327 327 327 328 328 328 327 328 328 328 329 329 329 328 327 328 329 328 328 328 328 327 327 327 327 327 327 325 322 321 320 319 319 318 320 323 327 328 327 328 328 327 327 327 327 326 324 323 322 322 322 324 324 324 324 325 325 325 326 326 327 326
333 332 332 332 332 332 332 332 331 331 331 331 331 332 331 330 329 328 328 327 327 327 327 327 327 327 327 328 328 328 328 327 327 327 327 327 327 328 329 328 328 328 328 328 327 327 327 327 326 324 321 320 320 320 319 319 320 322 324 327 327 327 327 327 327 326 325 323 322 321 320 320 320 320 321 323 324 325 325 325 325 325 326 326 327
333 333 333 333 333 332 332 332 331 331 331 330 330 331 332 331 329 328 328 328 328 327 327 327 327 327 327 327 326 327 330 328 326 326 326 325 326 327 328 327 327 327 327 327 327 327 326 326 324 320 318 318 318 319 319 319 321 323 325 326 326 326 326 325 323 321 319 318 318 318 319 319 319 320 321 322 323 324 325 325 325 325 325 326 326
333 333 333 333 332 331 331 331 331 331 330 330 329 330 330 331 330 329 328 329 328 328 328 328 328 327 326 326 327 328 329 327 326 326 326 325 325 326 326 326 327 327 326 326 326 326 326 325 321 316 314 314 315 316 317 318 320 322 324 325 326 325 324 321 319 317 314 313 313 313 314 315 316 318 320 321 321 322 322 323 324 324 325 325 326
332 332 332 331 330 330 331 330 331 331 330 330 330 329 330 331 331 330 329 329 329 328 328 328 328 327 325 326 328 327 326 327 327 327 326 325 325 326 326 326 327 327 326 326 326 326 325 322 316 313 312 312 312 312 313 315 317 319 321 323 323 320 318 317 317 316 312 308 306 307 307 308 310 312 315 318 319 320 320 320 321 323 324 325 325
331 331 331 330 329 329 330 330 331 331 330 331 331 330 330 331 331 330 329 329 329 329 328 328 328 328 326 327 328 327 326 327 327 326 327 326 325 326 327 327 327 327 327 326 325 324 321 317 313 311 310 309 309 309 309 310 311 312 313 314 313 311 309 308 309 308 305 302 301 301 302 302 303 304 306 309 313 316 318 318 319 320 322 323 324
331 330 330 329 329 330 330 330 331 331 330 330 331 331 331 331 331 331 330 329 329 328 328 328 328 328 328 328 328 327 326 326 325 326 327 327 324 324 324 325 326 326 326 325 324 321 316 312 310 308 307 307 306 306 305 305 305 305 305 305 304 302 301 301 301 301 301 300 300 300 300 300 300 300 301 302 304 307 311 314 316 317 318 320 323
329 329 328 328 329 329 330 330 331 330 330 330 331 331 331 331 331 330 330 329 329 328 328 328 328 328 328 328 327 326 326 326 325 325 326 326 326 323 321 323 324 324 325 323 319 315 311 308 307 306 305 304 303 303 302 302 301 301 300 300 300 300 301 301 301 302 302 302 301 301 301 301 301 301 300 300 300 300 302 305 309 312 314 316 320
326 326 326 326 327 327 328 329 330 330 330 330 330 330 330 331 331 330 330 330 329 329 328 328 328 328 328 328 327 325 325 324 324 325 325 325 326 323 322 322 321 321 322 320 314 310 307 305 304 303 303 302 301 301 300 300 299 299 300 301 302 303 303 303 302 303 302 301 301 301 301 301 301 301 301 301 300 299 299 300 300 303 306 308 312
324 324 325 326 326 326 326 327 329 329 329 330 330 330 330 330 330 330 329 330 329 329 328 328 328 328 328 328 327 326 325 325 324 325 325 325 325 323 321 321 320 318 318 316 310 307 305 303 302 301 301 300 299 299 299 299 300 301 303 304 304 303 303 302 303 303 303 302 302 301 301 301 300 301 301 300 300 300 300 300 299 299 300 301 303
325 325 325 325 325 325 326 326 327 327 328 328 329 329 330 330 330 329 329 329 329 329 328 328 328 328 328 328 328 327 326 325 325 325 324 324 324 322 319 319 318 316 315 311 307 306 304 302 301 300 299 299 299 299 299 301 303 304 305 305 305 305 304 304 304 304 304 304 303 303 303 302 301 301 301 301 301 301 301 301 300 300 299 298 298
326 326 325 326 325 325 325 325 326 326 327 327 328 329 329 330 330 329 328 328 328 328 328 329 329 328 328 328 328 327 326 325 325 325 324 324 323 320 318 318 317 314 312 309 307 306 304 302 301 299 298 298 298 299 301 304 306 306 306 306 306 306 306 306 306 305 305 305 305 305 304 304 303 302 302 301 301 301 301 301 301 300 299 299 298
326 326 326 325 325 325 325 325 326 326 326 327 328 329 329 329 330 329 329 329 329 328 329 329 328 328 328 328 328 328 326 325 325 324 324 323 322 320 318 317 315 313 311 309 308 308 306 303 301 299 298 298 299 301 304 306 307 307 307 307 306 306 306 306 306 306 305 305 305 305 304 304 304 303 303 302 302 301 301 301 302 301 300 299 299
325 326 325 325 324 324 325 326 325 324 325 326 327 328 328 328 329 329 329 329 329 328 328 329 328 327 328 328 328 328 326 325 324 324 324 324 322 321 319 317 314 312 311 310 310 310 309 305 301 299 298 299 301 303 305 306 307 307 307 307 307 306 306 306 305 305 305 305 305 305 305 304 304 304 303 303 303 302 301 301 302 302 301 300 300
325 325 325 325 324 324 325 325 325 324 324 326 326 326 327 327 328 328 328 328 328 328 328 327 327 326 327 328 328 327 326 325 324 324 325 324 322 322 320 319 317 313 312 312 311 310 311 307 304 302 300 300 302 303 305 307 308 308 308 307 307 307 306 306 305 305 305 305 305 305 305 305 304 304 303 303 303 302 301 300 301 302 302 302 301
325 325 325 324 324 324 324 324 324 324 325 324 325 326 326 327 327 327 327 327 327 327 327 326 326 326 326 328 328 327 326 325 324 324 324 324 322 321 320 319 318 315 314 315 313 310 311 310 306 305 303 302 302 303 305 307 308 308 308 308 307 307 307 306 306 305 305 305 305 305 305 305 304 304 303 303 303 302 301 300 301 302 302 302 302
324 324 324 324 324 323 323 323 322 324 325 323 323 325 326 327 328 327 327 327 326 326 326 325 326 326 326 328 328 327 326 324 323 323 324 323 322 321 320 319 318 316 314 316 315 311 311 311 308 306 306 305 304 303 304 306 307 307 307 307 307 307 307 307 306 305 305 305 304 305 305 305 305 304 304 303 303 302 301 300 300 302 302 302 302
323 323 323 323 323 323 323 322 321 323 325 323 321 324 326 326 326 326 326 325 325 325 325 325 325 326 327 328 327 327 326 324 322 322 323 323 322 321 320 319 317 316 314 315 315 313 311 310 308 306 305 306 306 305 304 306 307 307 307 307 307 307 307 307 306 306 305 305 304 304 305 305 305 304 304 303 302 301 300 300 301 302 302 302 302
323 323 323 322 322 322 322 322 321 321 324 324 322 323 325 324 321 319 320 320 321 322 323 323 324 325 326 327 327 327 325 324 322 322 322 322 322 321 320 318 316 314 314 313 313 312 310 309 308 306 306 306 306 306 305 305 306 306 306 306 306 307 307 307 306 306 305 305 304 305 304 304 304 304 303 302 301 301 300 300 301 301 302 302 302
324 323 323 322 322 321 321 320 320 320 323 324 322 322 324 324 321 318 315 316 317 318 319 320 321 323 325 326 326 326 325 324 322 322 321 321 320 319 318 318 315 313 312 311 309 309 309 309 308 307 306 306 306 306 306 305 305 305 305 305 306 306 307 307 307 306 305 305 304 304 304 304 304 303 302 301 300 300 300 300 301 301 301 302 302
324 322 321 320 320 320 319 319 319 321 324 324 323 323 322 322 322 321 316 315 316 317 318 317 317 319 322 324 325 325 325 324 323 322 321 319 318 317 316 316 315 312 311 310 309 308 308 308 307 307 307 307 306 306 306 306 306 306 306 306 306 306 306 307 307 306 305 304 304 304 304 303 303 302 301 300 300 300 300 300 301 301 301 301 301
322 320 319 319 320 319 318 318 318 319 321 322 322 322 321 319 320 321 317 315 316 317 316 315 315 315 318 322 324 325 325 325 324 323 321 320 319 317 316 315 314 313 312 311 310 309 308 308 307 307 307 307 307 307 306 306 306 306 306 306 306 306 306 306 307 306 305 304 304 304 303 303 302 301 300 300 300 300 300 301 301 301 301 301 300
319 318 319 319 319 319 318 318 317 317 317 318 318 319 319 318 318 319 317 315 315 315 314 314 315 315 318 322 324 324 324 324 324 324 322 321 320 319 317 316 315 314 313 312 311 309 308 308 307 307 307 307 307 307 307 306 306 307 307 307 307 306 306 306 306 305 304 304 304 303 303 302 301 300 300 300 300 300 300 301 301 301 301 301 300
317 318 319 319 319 319 318 317 316 316 315 315 315 315 317 317 316 317 317 316 315 315 315 314 315 315 317 321 323 323 323 323 322 322 322 322 321 320 319 318 317 317 315 313 311 310 308 308 307 307 307 306 306 306 306 306 306 306 306 307 307 306 306 306 306 305 304 304 303 302 302 301 300 300 300 300 300 300 301 301 301 301 301 301 300
316 316 317 317 316 316 316 316 316 315 315 314 313 314 315 316 316 316 317 317 316 315 315 314 314 315 316 318 320 320 320 319 318 318 319 319 319 319 318 318 319 318 317 314 311 309 308 308 307 307 306 306 306 306 306 306 306 306 306 307 307 307 307 306 305 304 304 303 302 301 301 300 300 300 300 300 300 300 301 301 301 301 300 300 300
315 314 314 314 314 313 314 315 314 314 315 314 312 313 314 315 314 314 315 316 317 316 315 315 315 314 315 316 317 317 317 316 315 315 315 315 315 316 316 315 316 317 317 314 311 308 308 308 308 307 306 306 306 306 306 306 305 306 306 307 306 306 306 305 304 303 302 302 301 301 300 300 300 300 300 300 300 300 300 300 300 300 299 299 299
315 314 314 313 313 313 313 313 313 314 314 313 313 313 313 313 313 313 314 315 316 316 316 316 315 314 314 314 314 314 315 315 315 315 314 314 315 315 315 315 313 314 315 313 310 308 308 308 308 307 307 307 306 307 307 306 306 306 307 307 307 306 305 305 304 303 302 301 301 300 300 300 299 299 299 299 299 299 299 299 298 298 298 298 297
317 315 315 314 314 314 313 313 313 314 314 313 313 314 313 313 313 313 313 314 316 317 316 316 315 315 314 314 313 313 313 313 313 313 313 314 314 315 315 315 313 312 312 311 309 308 308 308 309 308 307 307 307 307 308 308 308 307 308 308 307 306 305 305 304 303 302 301 300 300 300 299 299 299 299 298 298 298 298 298 297 297 297 296 296
318 317 316 316 315 316 315 314 313 313 313 313 314 314 314 314 314 314 314 314 315 316 316 316 316 315 315 314 314 313 313 313 313 313 313 313 314 314 315 315 314 312 311 309 309 309 310 310 309 308 308 308 308 308 309 309 309 308 308 308 307 305 304 304 303 302 301 301 300 300 299 299 298 298 298 298 297 297 297 297 296 296 296 295 295
319 317 317 316 316 315 315 314 314 313 313 313 314 314 315 314 314 314 314 314 314 315 315 316 316 316 315 315 314 314 313 313 312 312 312 312 313 313 313 314 314 313 312 311 311 312 312 311 311 310 309 308 309 309 309 310 309 308 308 308 307 306 305 304 302 301 300 300 300 299 298 298 298 297 297 297 296 296 296 295 295 295 295 294 294
320 319 319 319 318 317 316 315 314 314 313 313 313 313 314 314 314 314 314 314 314 314 315 315 315 315 315 315 314 314 313 313 313 313 313 313 313 312 312 312 313 313 313 313 313 313 313 313 312 312 311 310 310 309 309 310 309 308 308 308 307 306 305 305 304 302 301 301 299 298 297 297 297 296 296 296 295 295 295 294 294 294 293 293 293
320 320 319 320 320 319 319 318 318 317 315 314 314 313 313 313 313 314 314 314 314 315 315 315 315 314 314 314 314 314 314 314 314 314 314 314 314 314 313 313 313 313 313 312 312 313 313 313 313 313 313 312 312 311 311 310 310 309 308 307 307 307 306 306 306 304 301 300 299 298 297 297 296 296 295 295 295 294 294 294 293 293 293 293 293
316 316 316 316 318 319 320 321 321 320 319 318 317 316 315 315 314 313 313 314 314 315 315 314 314 314 314 314 314 314 314 314 314 314 315 315 315 315 315 314 314 314 313 313 313 312 312 312 312 313 313 312 312 312 312 311 310 310 309 308 307 306 306 305 304 302 300 299 298 298 297 297 296 295 295 294 294 294 294 294 293 293 293 293 293
309 310 310 310 312 313 316 318 319 320 320 321 320 320 319 318 317 315 314 313 313 314 314 314 314 314 314 314 314 314 314 314 314 314 315 315 315 315 315 315 315 315 314 313 313 313 313 313 313 313 313 313 313 313 312 312 311 310 310 309 307 306 305 303 301 300 299 298 298 297 297 296 295 295 294 294 294 294 294 293 293 293 293 293 293
305 305 306 306 306 307 309 312 313 314 315 317 319 320 321 320 320 319 317 316 315 314 313 313 314 314 314 314 314 314 314 314 315 315 315 315 315 315 315 315 315 315 315 314 314 314 314 314 314 314 314 314 313 313 312 312 311 310 309 307 305 304 303 301 299 298 298 297 297 297 296 295 295 295 294 294 294 294 294 293 293 293 293 292 292
304 303 303 303 303 304 305 306 307 307 308 309 312 314 317 319 320 321 321 320 319 318 316 315 314 314 314 314 314 314 314 315 315 315 315 316 316 316 316 316 316 315 315 315 315 315 314 314 314 314 314 314 313 312 312 312 311 310 308 305 303 303 303 301 298 298 297 297 296 296 296 295 294 294 294 294 294 294 293 293 293 293 293 292 292
302 301 300 301 301 302 302 303 303 303 304 304 306 307 309 312 315 318 320 321 321 321 320 320 318 317 317 317 317 317 316 316 317 317 317 317 317 317 317 316 316 316 316 316 315 315 314 314 314 313 313 313 313 312 311 310 308 307 306 305 304 303 303 302 299 297 296 296 296 296 295 294 294 294 294 294 294 293 293 293 293 292 292 292 292
299 299 299 299 300 300 300 301 301 301 302 302 303 304 304 306 308 310 313 316 319 321 322 321 321 320 319 319 318 317 317 317 317 318 319 319 318 318 318 317 316 316 316 316 316 315 314 313 312 312 312 312 312 311 309 307 305 305 305 306 306 305 303 301 299 297 296 296 296 295 295 294 294 293 293 293 294 293 293 293 293 292 292 292 292
Wind_Speed
10 10 9 9 8 8 9 8 7 6 6 5 5 4 3 4 4 4 4 4 5 6 8 10 11 11 11 13 15 15 14 13 12 12 13 12 13 13 13 10 8 8 8 8 8 9 10 11 11 11 11 11 10 11 10 10 9 9 8 8 8 8 8 8 8 7 7 7 7 7 7 7 8 8 8 8 8 9 10 9 9 9 8 8 9
9 9 8 7 7 8 7 6 5 4 4 4 3 3 3 5 5 5 5 4 4 6 9 11 11 11 10 12 14 15 14 13 12 12 13 13 14 14 12 10 7 6 7 9 8 8 8 9 10 10 11 11 10 9 10 10 10 9 9 8 8 9 9 9 8 8 8 7 7 7 7 7 8 8 7 7 7 7 8 8 9 10 9 7 8
8 8 7 7 6 6 6 5 4 3 3 3 3 2 3 5 5 6 6 5 5 5 8 11 12 11 10 12 13 15 15 14 13 13 13 13 14 13 11 9 6 5 7 8 7 7 7 7 8 8 10 11 10 9 10 10 9 9 9 9 9 9 9 9 9 9 9 8 8 8 8 8 8 7 7 6 6 6 6 7 8 8 9 7 8
7 7 7 7 6 5 4 3 3 3 3 3 3 3 4 6 6 8 7 6 6 6 8 10 11 11 12 12 14 15 15 15 14 13 14 13 13 13 11 9 7 6 7 8 8 7 5 6 7 6 8 9 8 9 10 10 10 9 10 10 11 11 10 10 10 10 10 10 11 10 10 10 9 9 8 7 7 6 6 6 7 6 6 6 7
6 6 6 6 5 4 3 3 3 3 3 4 3 3 4 5 7 9 8 8 8 7 8 9 11 11 12 12 13 15 16 16 14 13 14 13 13 12 10 10 8 7 7 9 9 7 5 7 8 7 8 8 7 8 9 10 10 11 10 10 12 12 11 11 10 10 11 12 13 13 13 12 12 11 10 10 9 8 7 7 6 5 5 5 6
6 5 5 5 5 4 3 4 4 4 5 4 3 2 3 5 7 9 9 9 9 9 9 10 11 11 11 11 12 15 16 16 13 13 13 12 12 11 10 10 8 8 9 9 9 8 6 7 10 10 10 9 7 7 6 6 7 9 10 10 11 10 10 10 10 9 10 10 11 12 12 12 13 13 12 12 11 10 9 8 7 6 5 5 5
6 5 5 5 5 5 5 5 5 5 5 4 3 3 4 5 7 9 9 9 9 10 10 10 11 11 11 11 12 15 16 15 13 13 12 11 12 11 10 10 8 7 8 8 8 7 6 6 9 9 7 7 6 5 5 3 4 4 5 7 7 7 7 7 8 8 8 7 8 9 9 10 10 11 12 12 12 11 10 9 9 8 7 6 5
7 7 6 6 6 6 6 6 6 6 5 5 4 4 5 6 7 8 9 9 9 10 10 11 12 12 12 12 14 16 16 15 13 11 11 12 12 10 10 10 8 7 7 8 8 7 6 5 5 5 4 4 3 3 3 1 2 1 1 2 1 2 2 3 3 4 5 5 6 6 6 7 8 9 10 10 11 11 10 10 9 9 9 7 6
8 8 8 7 6 6 6 6 7 7 6 6 6 5 6 6 7 8 8 9 10 10 10 11 12 12 12 12 14 16 16 14 11 10 11 12 12 11 11 10 10 9 9 9 8 7 5 4 3 3 2 2 2 2 3 2 2 3 2 2 1 1 2 2 1 0 1 1 3 3 3 5 6 7 8 9 10 10 10 10 9 9 9 8 7
9 9 9 8 7 7 6 7 8 7 6 6 7 7 7 7 8 8 8 8 10 11 11 12 13 13 12 12 13 14 13 10 9 10 11 11 11 11 10 10 10 10 9 9 7 5 4 3 2 2 2 2 2 3 5 5 5 6 5 5 4 3 2 1 1 2 1 2 2 2 4 5 6 7 8 9 8 8 9 9 9 9 9 9 8
8 9 9 8 8 8 7 8 9 8 7 7 8 8 8 8 9 9 8 8 9 11 13 14 14 13 12 12 12 14 12 10 10 11 11 10 11 11 10 9 10 10 9 7 6 5 4 3 1 1 2 3 5 5 5 5 6 6 6 6 7 7 6 5 4 6 5 4 3 3 4 5 6 7 8 8 8 7 8 9 9 9 9 9 8
8 8 9 9 9 8 8 9 9 9 8 8 9 9 9 10 9 9 9 9 10 12 14 17 17 15 14 13 12 12 12 11 11 11 10 10 11 10 10 10 9 9 9 7 6 5 5 3 2 2 4 5 5 5 5 4 4 6 7 7 8 8 8 8 7 8 8 8 6 5 5 5 5 6 7 7 7 7 8 9 9 9 8 9 9
8 8 8 9 9 8 8 9 9 9 8 7 8 9 9 10 10 9 9 10 13 14 16 19 19 16 14 15 14 12 9 10 11 10 9 10 10 10 11 10 10 9 9 8 7 5 4 3 3 4 5 5 5 4 3 3 3 5 7 8 8 8 8 8 8 9 10 9 8 6 6 6 5 5 7 8 8 7 8 9 9 9 9 9 9
7 8 7 7 9 10 8 8 8 8 8 7 9 10 10 11 12 11 10 12 14 16 18 15 12 13 12 12 14 13 10 7 8 8 7 9 10 12 11 11 10 9 9 8 6 5 4 4 4 5 6 6 5 5 4 4 5 6 7 9 9 9 9 9 10 11 10 9 9 8 8 8 7 6 8 9 9 8 7 7 7 7 8 9 9
7 7 6 5 7 9 8 7 8 9 9 9 10 11 11 11 13 13 13 14 15 18 16 9 10 15 12 7 5 7 7 5 8 8 6 9 9 12 12 11 11 10 10 9 8 6 6 7 7 7 7 7 8 8 7 8 8 8 9 11 12 13 12 12 12 11 10 9 10 10 10 10 10 10 10 10 11 11 10 8 7 7 7 7 8
6 6 5 5 6 8 8 8 9 9 9 10 12 14 14 13 13 14 15 16 16 17 12 7 13 14 7 4 2 3 3 4 8 10 9 12 10 10 12 11 10 8 8 10 9 8 9 10 9 9 9 10 10 10 10 10 9 9 10 11 13 14 13 12 12 11 10 10 10 10 11 12 13 14 13 11 11 11 12 11 10 10 9 7 6
6 5 5 5 6 7 8 8 9 9 9 11 13 14 14 14 14 14 16 17 17 17 11 9 14 11 5 5 4 1 2 6 8 8 12 14 10 9 10 9 8 7 8 12 12 12 12 10 10 10 10 10 10 10 10 10 9 8 9 9 10 11 11 12 13 12 12 11 11 11 12 12 13 14 15 13 12 11 11 11 11 11 12 10 5
6 5 5 5 6 7 8 9 9 9 9 10 12 13 13 14 14 14 16 17 17 18 14 12 15 9 5 5 2 2 7 9 6 3 11 16 14 11 10 10 11 11 12 14 14 14 12 10 10 10 9 9 10 10 10 10 10 9 9 8 8 9 10 11 13 13 12 11 11 11 11 12 13 14 15 15 15 14 14 13 12 11 13 13 10
7 7 7 7 8 8 9 9 10 9 10 10 11 12 12 13 14 13 15 16 17 19 17 14 15 11 6 4 1 4 12 11 6 5 6 10 14 15 13 12 13 14 14 14 15 13 11 10 10 9 9 9 9 9 10 10 11 11 11 10 9 9 10 10 10 12 13 13 13 13 13 13 13 14 14 15 15 16 16 16 16 14 14 15 16
9 9 9 9 9 9 9 9 9 10 10 10 10 11 10 12 13 13 14 16 16 17 17 15 16 13 8 5 1 5 11 10 11 13 7 4 8 12 13 14 14 15 15 14 14 12 11 10 9 9 9 9 9 9 9 10 10 11 12 11 11 11 12 12 13 14 16 17 17 17 17 16 16 15 15 15 15 15 15 16 17 17 16 16 18
11 11 11 10 9 8 8 9 9 10 10 10 10 10 10 11 13 12 13 14 15 15 16 15 16 16 12 7 5 8 10 8 13 17 11 6 5 5 9 13 13 14 15 15 13 12 11 9 9 9 8 9 9 8 9 10 11 12 14 14 14 16 16 17 16 17 19 20 19 19 18 18 18 17 17 17 16 16 15 15 15 15 16 16 15
11 11 10 9 8 7 8 9 10 10 10 10 10 10 10 11 11 12 12 12 13 14 15 14 14 15 13 10 9 11 10 7 12 16 12 8 7 7 10 11 10 11 13 15 13 11 10 9 8 8 8 9 9 9 10 12 14 16 17 18 18 18 18 18 18 18 19 20 21 21 20 20 19 19 19 19 18 18 17 16 15 14 13 14 13
10 10 9 8 7 6 7 8 9 10 9 9 10 10 10 10 10 12 12 11 12 13 14 13 14 15 15 12 11 12 10 9 15 18 14 10 9 8 9 11 11 10 11 13 12 11 10 9 9 9 9 10 10 11 14 17 19 19 19 19 19 19 19 19 20 20 20 21 22 23 23 22 22 21 21 20 20 20 19 18 17 16 14 13 12
11 10 8 7 6 5 6 9 9 9 9 8 9 9 9 9 10 11 12 11 12 13 14 13 14 16 16 14 12 12 11 11 18 21 19 19 16 9 9 11 9 7 11 13 11 10 10 8 9 10 11 12 13 16 18 20 21 20 20 20 20 20 20 19 19 19 19 20 20 22 22 23 23 23 23 22 21 20 20 20 18 17 16 15 13
12 11 8 6 5 4 5 8 9 8 7 8 8 9 10 10 9 10 11 12 12 13 13 13 13 14 16 15 12 13 11 9 17 21 21 24 21 13 10 9 7 7 10 10 9 9 8 8 9 10 12 14 17 19 21 22 22 21 20 20 20 19 19 18 18 17 17 18 18 19 20 21 22 23 23 23 22 21 20 20 20 18 17 16 15
12 11 9 6 4 4 4 7 9 7 6 6 7 8 9 9 9 10 11 11 11 12 12 12 13 13 14 15 13 13 11 9 16 21 23 26 23 19 14 8 8 9 7 6 9 8 6 9 10 11 13 16 18 21 22 22 21 21 20 19 19 18 17 17 16 16 16 16 16 17 18 19 20 21 22 22 23 23 21 19 19 18 18 17 16
10 10 9 7 5 4 5 6 8 6 5 5 5 5 6 7 8 8 10 11 11 12 12 12 12 12 13 14 12 12 11 10 15 20 24 28 28 28 23 12 6 5 3 4 7 5 6 10 11 12 14 16 19 21 22 21 20 19 18 17 17 16 15 15 15 14 14 14 14 15 16 17 18 19 19 20 21 22 21 18 16 16 16 16 16
9 9 8 8 7 6 6 6 6 6 4 3 3 3 4 5 6 7 8 9 10 10 11 11 11 11 12 12 11 11 11 11 14 18 23 28 30 31 30 22 12 4 1 3 4 4 8 11 11 13 15 16 18 20 20 19 19 18 17 16 15 14 13 13 13 13 12 12 12 13 13 14 15 17 17 18 19 20 19 17 14 13 13 14 14
9 9 8 8 8 7 6 6 5 5 4 2 1 2 2 3 4 6 6 6 7 7 8 8 9 10 12 12 10 10 9 10 13 17 23 28 30 30 29 25 20 11 3 1 4 6 10 12 10 12 16 16 17 20 19 18 18 17 16 14 13 12 11 11 11 10 10 10 10 10 10 11 12 14 15 15 17 18 17 16 13 11 11 11 12
9 9 8 8 8 8 7 5 4 5 6 3 1 2 1 1 3 4 5 4 5 5 6 6 6 9 12 12 11 10 8 10 13 16 22 27 28 29 26 21 20 18 11 5 5 8 13 14 10 12 17 17 16 18 18 18 17 15 14 13 11 10 9 9 8 8 8 8 7 7 7 8 9 11 12 13 15 16 15 14 12 10 9 9 10
8 8 8 8 8 8 7 6 4 6 7 4 1 2 1 2 2 3 4 4 5 6 6 6 6 9 12 13 12 10 8 11 13 15 21 26 26 26 23 18 16 19 19 12 5 8 14 15 12 13 16 16 16 17 17 17 16 14 13 11 10 9 8 7 7 6 6 5 5 5 5 6 7 8 10 12 14 14 14 12 10 9 8 8 8
8 8 8 8 8 8 7 6 6 6 8 7 3 1 1 2 2 2 2 3 4 6 7 7 7 9 12 13 13 10 9 12 13 15 21 24 24 23 21 17 14 15 20 16 7 8 14 15 12 13 15 15 16 16 17 17 16 14 12 10 9 8 6 5 5 4 3 3 4 4 5 5 5 7 9 11 13 13 12 11 9 7 7 7 6
8 8 8 8 8 8 7 6 6 6 8 9 5 3 3 2 2 1 1 2 4 5 6 6 6 8 10 13 13 11 10 12 13 16 20 22 21 21 20 18 16 15 16 13 8 9 13 14 13 14 15 15 16 17 17 17 16 14 12 10 9 8 6 5 4 3 2 2 3 4 4 4 5 7 9 11 12 12 11 9 8 7 6 6 5
9 8 7 7 7 6 6 5 5 5 7 9 7 5 4 3 3 2 2 3 5 6 6 5 5 6 8 12 13 12 11 12 12 15 19 20 20 20 20 19 18 16 14 11 9 11 15 16 15 15 17 16 16 17 18 17 16 14 12 11 10 8 6 5 4 3 3 3 2 2 3 4 6 8 10 11 11 11 10 8 6 6 6 6 6
8 7 7 8 7 7 6 5 5 5 6 8 7 6 5 4 4 4 5 6 7 7 7 5 4 5 7 10 13 14 13 12 12 14 18 20 20 20 21 20 20 19 17 13 10 11 16 18 16 16 19 18 16 17 17 16 15 13 12 11 9 8 8 7 6 5 5 3 1 1 3 5 7 8 9 9 10 9 9 7 5 6 7 7 7
7 7 8 8 8 7 6 5 5 4 4 5 6 6 6 5 5 5 7 8 9 8 7 6 4 4 7 10 13 14 14 13 13 15 17 19 19 20 21 21 21 21 19 17 14 11 14 18 17 17 19 20 18 16 16 15 14 12 11 10 9 9 10 9 8 7 6 3 1 2 4 6 7 8 8 8 8 8 7 6 5 6 7 8 8
7 7 7 7 6 7 6 6 5 5 4 5 5 6 7 7 6 6 7 10 10 8 6 6 5 5 7 10 13 14 14 14 14 15 16 18 19 20 21 22 22 21 20 19 17 15 13 15 17 17 17 19 19 17 16 16 15 13 11 10 10 11 12 12 10 8 6 3 1 3 4 5 6 6 7 7 7 6 6 6 5 6 6 6 6
7 6 5 5 5 6 7 6 6 5 5 5 4 5 7 8 7 7 7 9 9 9 7 7 8 7 8 10 12 13 13 12 12 12 13 14 15 16 18 20 22 22 21 19 19 17 14 13 16 17 18 19 20 19 18 17 16 15 11 10 12 14 15 14 11 9 6 3 1 2 3 4 5 5 5 5 5 5 5 6 6 6 6 6 6
5 4 4 5 5 5 6 6 6 6 6 5 4 4 6 7 7 7 8 9 8 8 8 9 9 9 9 10 11 12 12 11 11 11 11 11 10 11 11 13 15 18 19 19 19 19 16 14 14 17 19 19 19 18 17 16 15 15 14 15 16 16 15 14 12 9 6 3 1 1 2 3 3 3 4 4 4 5 5 6 6 7 7 8 8
5 5 6 6 6 6 6 5 5 6 6 6 5 5 5 6 5 5 8 9 8 8 8 8 8 9 9 9 9 10 11 10 10 11 11 10 10 10 9 9 10 12 15 18 19 19 18 15 14 15 17 18 17 16 15 15 16 17 18 19 19 19 17 15 12 9 6 4 2 0 1 1 2 2 3 4 4 5 5 6 7 8 9 9 10
7 8 9 9 8 9 8 6 6 6 6 7 6 5 5 5 5 5 6 9 10 9 8 8 8 9 8 7 8 8 9 9 10 10 11 11 11 11 11 10 10 11 13 17 19 19 18 16 15 15 15 16 17 17 17 18 20 20 21 20 20 20 19 15 13 10 7 5 3 2 2 1 1 2 3 4 6 6 7 8 9 9 10 10 10
9 10 11 11 11 11 10 8 7 7 7 7 7 7 6 6 6 6 6 9 10 10 9 9 10 10 10 9 9 9 9 9 10 10 10 10 10 10 11 11 12 13 15 18 19 19 17 17 17 17 17 18 20 21 21 22 22 22 22 22 21 21 19 15 12 9 7 5 4 3 2 1 1 2 4 6 7 8 9 10 10 11 11 11 12
6 6 7 7 7 8 8 8 8 8 8 9 8 8 8 8 8 8 7 9 10 10 10 11 12 12 12 12 12 11 11 11 11 11 10 10 11 11 11 12 12 14 15 18 19 19 18 18 18 19 20 21 22 22 22 22 23 23 24 24 24 23 21 16 12 9 8 7 5 3 3 2 2 4 5 6 7 8 9 10 10 11 11 12 13
5 4 3 2 2 3 4 5 6 7 9 10 11 11 10 10 10 10 10 10 11 11 11 12 13 14 14 14 14 14 13 12 11 11 11 11 11 12 12 12 13 14 15 16 16 17 18 19 19 20 21 22 23 23 23 23 23 24 24 24 25 24 23 19 14 11 9 8 6 4 3 3 2 4 6 7 8 9 9 9 8 9 10 11 11
6 6 5 4 3 2 1 1 2 3 5 7 9 11 12 12 13 13 13 13 13 14 14 15 15 16 16 16 16 16 15 15 14 14 13 13 13 13 13 13 14 15 15 16 16 16 17 18 20 20 20 21 22 22 23 24 24 24 24 25 25 23 21 18 15 12 10 9 6 4 3 3 2 4 6 7 9 10 9 7 6 7 9 10 10
7 7 7 7 6 5 4 3 3 3 3 4 5 7 9 11 14 16 17 17 17 17 17 17 18 18 18 18 18 18 18 18 17 17 17 17 16 16 16 16 16 16 16 17 17 17 18 18 20 20 20 20 20 20 21 22 23 23 25 26 25 23 19 16 12 11 10 9 6 4 3 3 3 5 6 7 8 9 8 5 5 7 9 10 10
10 10 10 9 9 8 7 6 5 4 3 3 3 5 6 7 10 13 16 19 20 20 20 20 20 20 21 21 21 21 21 21 20 20 20 20 20 19 19 19 19 19 19 19 20 21 21 21 22 21 21 21 21 22 21 20 20 22 24 25 24 20 16 13 11 10 10 8 5 4 3 2 4 5 6 7 9 9 6 3 4 8 8 9 10
13 12 11 11 11 11 9 8 7 7 5 4 3 4 6 7 7 8 10 13 17 20 22 23 24 24 24 24 24 24 24 24 23 23 23 22 22 21 21 22 22 22 21 22 22 23 23 23 23 22 22 22 22 21 21 20 20 23 24 22 20 18 15 13 11 10 9 7 6 4 2 1 4 5 7 9 9 8 5 3 5 8 8 8 10
11 12 12 11 11 11 10 10 9 10 9 8 7 6 6 7 8 8 9 10 11 14 18 21 24 25 26 26 25 26 27 27 26 26 25 23 23 23 23 24 24 25 25 25 25 25 24 23 23 23 22 22 21 19 19 20 22 25 26 24 20 18 16 12 10 11 10 8 7 5 1 1 2 5 8 10 10 8 3 3 6 9 9 8 10
10 10 10 10 10 10 11 11 10 10 10 10 10 9 8 8 8 9 10 11 12 13 15 16 19 21 22 22 23 25 26 27 26 26 24 23 22 22 23 24 26 27 27 27 26 26 25 24 23 22 20 20 20 19 19 20 22 23 22 19 16 15 13 10 10 12 11 8 7 5 1 1 2 5 8 9 9 6 2 2 8 11 10 10 9
11 10 10 9 9 10 10 10 10 10 10 10 10 10 10 10 9 9 10 12 13 15 17 17 18 19 19 18 20 23 25 25 24 24 23 23 23 22 21 23 25 27 28 27 27 26 25 23 21 20 19 19 18 18 19 20 20 18 16 12 10 10 11 11 12 11 7 6 8 5 1 2 2 4 6 6 5 3 2 5 12 14 13 11 10
Wind_Direction
165 159 152 146 144 139 132 132 128 130 138 137 133 132 154 167 154 150 143 132 128 139 156 161 166 169 162 159 163 169 171 168 164 158 151 148 147 139 136 142 135 118 103 97 103 102 89 82 86 89 87 84 80 77 76 78 77 75 74 72 71 73 74 72 74 73 65 67 68 66 65 69 70 66 59 54 66 77 66 54 49 52 62 62 61
164 158 150 151 153 145 139 136 129 135 148 151 143 128 163 174 164 152 142 139 134 136 152 157 159 165 165 162 166 172 174 171 169 161 150 146 144 141 144 147 134 118 111 110 114 114 103 92 92 94 87 80 78 77 77 77 74 72 68 66 69 70 70 68 67 64 62 63 60 57 57 61 63 64 64 56 60 77 74 61 53 49 43 49 70
165 159 155 162 165 153 148 145 140 151 166 163 150 128 150 160 156 150 146 148 143 135 148 154 152 155 159 163 168 174 176 174 170 161 150 145 147 148 149 150 136 113 115 117 117 120 120 106 94 97 94 86 81 78 77 74 71 69 66 67 69 69 69 67 63 56 53 52 51 51 47 47 48 48 52 50 52 65 71 65 59 55 44 51 71
170 166 166 171 172 165 163 168 177 187 177 159 145 125 141 150 144 143 148 152 152 145 147 153 153 157 163 166 170 175 178 174 168 161 154 150 153 154 149 147 136 108 111 116 120 133 134 107 94 100 99 90 85 82 78 73 70 71 71 71 71 71 70 66 64 59 54 51 49 48 43 40 38 35 35 33 35 40 48 54 56 63 56 55 67
174 173 179 180 181 180 193 201 197 188 170 156 149 128 139 150 140 138 147 156 158 152 152 158 160 163 169 169 172 176 175 169 166 165 160 157 158 155 146 144 131 107 110 111 115 130 129 101 96 99 96 93 99 94 82 72 69 72 75 75 74 73 73 71 68 66 63 61 57 52 46 43 40 36 34 28 24 23 24 29 38 52 49 44 59
176 181 187 190 195 192 197 196 182 174 165 157 161 146 140 147 143 143 152 162 164 158 161 164 163 166 169 170 172 172 170 167 171 170 163 161 160 154 145 147 138 117 115 112 110 117 120 108 99 95 93 95 99 95 87 76 66 71 78 81 80 77 76 75 74 72 71 68 63 57 49 44 44 43 40 35 28 22 17 17 18 20 22 32 47
178 185 192 195 195 189 188 189 184 180 171 166 176 163 149 146 147 152 160 168 169 164 167 166 164 166 166 167 166 163 163 167 171 165 161 164 162 154 145 149 150 135 130 129 124 120 120 115 106 105 109 112 115 113 114 106 77 80 93 90 86 84 82 78 78 77 75 73 67 57 46 40 40 43 43 38 34 29 23 16 12 11 11 20 33
182 183 194 197 187 184 186 192 198 198 190 178 177 177 166 157 155 163 170 174 174 169 166 161 156 156 157 159 157 159 164 167 165 158 161 170 164 155 149 149 155 152 149 151 146 139 136 126 114 120 129 130 135 125 110 87 51 60 100 88 85 101 99 91 85 79 70 69 66 55 40 32 29 31 33 32 29 29 28 23 17 13 9 8 11
188 188 195 198 186 184 189 198 206 210 206 179 171 180 177 169 164 172 184 184 175 164 151 145 145 147 150 152 151 157 164 161 157 160 167 170 165 162 159 155 156 151 149 155 155 152 150 145 136 135 125 110 112 69 58 44 29 27 26 31 26 278 251 242 247 270 336 14 45 40 14 13 14 11 12 12 14 18 21 21 18 14 11 7 1
193 196 199 199 194 191 196 204 206 211 211 183 172 179 179 177 174 178 192 190 175 157 143 137 137 138 139 140 142 149 156 152 152 165 169 169 166 168 170 166 163 157 154 156 156 158 156 152 148 126 85 57 39 39 51 55 51 48 45 44 45 36 20 281 314 355 325 285 316 334 319 320 332 341 344 344 345 356 3 5 6 4 4 6 2
196 201 202 204 199 193 201 207 204 207 209 193 180 182 183 182 183 185 187 183 173 155 142 137 133 130 129 125 121 126 138 150 160 167 167 169 168 167 169 166 164 162 161 162 156 154 157 158 141 75 40 28 31 37 48 54 55 52 49 50 49 48 53 62 60 47 47 51 28 6 348 324 319 326 332 326 313 315 327 332 339 346 352 357 358
202 206 204 207 199 193 206 206 199 201 205 198 186 188 189 184 188 191 184 168 159 151 143 138 127 116 116 114 110 118 134 148 159 165 165 166 166 165 166 160 157 158 159 160 158 151 148 144 111 51 34 37 39 40 45 48 61 60 56 60 58 55 57 60 64 57 54 58 48 31 25 12 356 347 340 329 312 306 307 306 307 311 328 340 343
203 205 203 208 200 196 206 198 191 196 202 200 190 192 191 189 191 190 185 162 148 148 145 137 123 111 108 103 97 105 130 153 156 158 161 158 160 167 168 162 159 160 160 160 160 155 145 124 81 54 50 53 41 31 39 43 79 84 69 64 63 63 64 63 69 69 66 63 53 42 35 27 23 10 357 347 333 319 311 309 304 296 301 313 320
192 198 198 202 197 196 202 196 190 190 196 200 196 196 192 194 193 185 181 166 154 151 147 140 128 124 120 104 91 89 104 135 131 127 147 146 161 176 171 167 168 165 166 164 159 151 137 112 87 72 62 60 54 56 74 83 93 100 83 71 68 71 74 75 78 78 73 63 53 49 45 38 30 21 21 19 8 356 341 332 326 309 298 292 295
186 196 197 192 193 198 202 202 197 189 194 198 193 193 193 193 192 187 178 166 160 159 158 161 148 136 123 111 102 93 96 101 85 79 97 108 139 173 164 159 167 170 167 157 152 141 118 109 98 84 74 73 80 84 90 95 96 97 89 80 76 74 75 77 77 73 66 57 53 51 46 43 39 36 44 47 38 31 25 12 1 345 321 299 290
190 197 203 200 201 205 204 204 197 190 197 196 186 185 189 189 189 190 182 169 165 169 174 180 160 147 125 97 102 108 112 109 84 71 85 95 109 147 148 147 154 163 155 136 135 128 112 107 93 84 86 86 89 90 90 94 98 99 91 82 80 79 76 74 70 66 62 60 58 54 49 47 45 44 48 57 55 46 40 31 21 12 359 340 308
188 195 203 204 202 201 200 198 193 189 196 199 191 185 185 188 189 190 190 183 176 177 182 176 168 163 140 119 109 126 160 132 114 80 84 96 103 121 127 129 130 133 127 114 116 117 108 101 93 91 93 91 91 90 90 92 95 101 97 88 82 80 78 74 71 68 67 67 63 58 54 50 47 46 45 49 53 49 45 39 32 27 21 13 352
172 181 185 183 179 178 180 184 185 186 191 199 199 192 186 188 191 192 195 195 188 183 184 179 178 177 153 142 111 156 161 141 134 90 89 100 109 116 112 110 113 117 118 112 112 114 107 100 98 98 96 93 92 90 90 92 92 93 95 94 84 76 77 79 78 76 71 67 63 58 54 50 48 47 46 46 46 45 43 40 40 41 37 32 27
163 166 165 160 157 159 164 173 181 185 188 195 201 201 196 190 194 198 199 200 196 192 192 186 186 191 193 198 32 137 159 153 149 144 109 101 108 113 117 121 121 118 117 117 115 112 108 106 105 104 101 96 92 91 90 89 88 89 89 90 86 80 78 76 79 80 75 70 66 61 57 54 51 48 47 46 45 44 42 40 41 46 47 44 39
155 154 153 151 152 157 161 171 183 189 191 193 199 206 207 199 198 203 205 207 210 208 204 197 196 200 201 208 233 158 164 167 159 144 127 106 107 105 116 127 128 124 122 119 117 114 113 115 114 111 107 101 94 90 89 88 88 90 89 89 89 88 85 82 83 84 80 75 70 66 62 58 56 54 50 48 46 44 41 40 41 43 47 51 50
146 146 146 147 151 155 163 174 184 190 193 195 199 205 210 210 208 207 209 210 215 221 218 211 208 206 200 187 165 159 159 159 153 141 129 135 132 115 125 126 121 125 128 124 119 119 119 119 119 115 109 102 98 93 93 95 94 94 94 94 93 91 88 86 84 83 80 76 71 68 64 60 57 56 54 52 50 47 44 42 41 41 43 48 55
143 145 148 148 151 157 165 175 182 188 192 195 199 202 207 216 221 219 217 215 215 220 223 225 226 219 207 192 169 157 149 145 148 140 131 128 129 142 147 135 122 126 135 132 126 124 122 122 123 120 115 107 103 104 104 103 102 100 98 96 93 90 87 85 81 79 79 77 74 70 66 63 59 57 56 55 53 51 49 46 44 43 42 44 49
148 152 157 157 158 164 171 178 183 186 190 195 200 204 208 213 221 224 222 220 219 221 225 232 238 232 216 208 201 185 177 177 166 152 140 133 132 139 140 132 127 130 140 139 132 128 126 128 130 126 121 117 113 114 113 110 107 104 101 96 92 90 88 86 83 79 78 76 74 71 66 63 60 58 57 55 53 51 49 47 45 45 45 45 47
160 161 164 164 168 174 179 184 187 188 191 199 205 208 210 209 212 220 220 217 220 223 226 230 236 235 224 218 219 213 211 198 177 165 154 148 142 132 131 131 124 125 142 143 137 133 127 126 131 127 123 122 121 121 118 115 111 106 103 99 95 92 90 87 83 79 75 72 69 67 63 60 58 56 54 52 50 48 46 45 44 44 45 47 49
171 168 164 166 181 191 199 197 194 195 201 207 212 209 208 209 210 214 215 215 219 224 228 229 232 237 231 226 223 219 222 205 182 173 158 150 142 131 136 136 126 132 145 148 142 136 129 125 128 128 126 126 126 125 122 118 114 110 106 102 98 94 91 87 83 78 73 68 64 60 58 55 54 52 51 49 46 44 42 42 43 44 45 47 49
176 172 169 169 181 193 212 203 192 197 207 209 213 210 208 210 211 213 213 216 224 231 235 237 238 240 235 232 229 220 217 202 187 177 161 154 148 140 138 120 116 135 144 158 153 141 134 134 133 132 131 131 130 129 127 122 117 114 109 105 101 96 93 89 84 79 74 68 63 58 54 51 49 48 46 44 42 40 38 38 40 42 43 45 46
176 176 174 171 173 182 199 196 190 198 204 201 206 208 210 213 213 217 218 222 230 234 239 243 244 243 235 231 230 220 212 202 194 184 172 165 159 154 150 134 115 133 129 162 168 160 153 147 140 139 138 136 136 134 132 127 122 119 115 109 105 100 95 91 86 81 75 69 63 57 52 48 45 42 40 38 37 35 34 35 37 39 40 40 40
175 180 179 178 179 185 195 199 205 209 202 201 207 207 214 217 217 223 225 227 232 234 240 245 244 240 229 224 224 215 208 206 197 188 180 175 168 164 160 151 147 149 107 166 194 199 173 163 153 149 147 143 143 142 138 133 128 125 122 117 111 105 100 94 88 83 77 71 64 56 50 45 41 37 33 30 29 27 27 28 32 35 37 36 35
172 177 180 186 189 191 193 196 210 215 213 229 245 229 223 213 216 226 229 230 229 230 239 242 236 227 218 215 216 210 205 204 195 187 186 181 174 171 169 164 158 153 134 182 207 206 184 175 168 161 158 154 152 151 146 140 136 132 128 123 117 111 105 100 93 87 82 75 68 60 52 43 37 33 27 22 19 18 19 21 25 28 31 32 31
174 175 179 188 197 200 196 193 206 213 212 222 292 302 292 194 205 218 220 224 223 225 231 229 218 209 207 208 210 210 206 198 191 190 190 186 179 177 177 176 170 164 157 159 199 203 188 182 179 173 170 165 161 159 155 150 146 141 135 128 121 116 109 104 99 91 87 83 76 67 55 44 35 26 20 14 10 9 11 15 19 20 22 25 26
181 181 184 194 204 208 205 204 210 212 206 201 252 314 34 104 161 193 209 217 221 226 225 218 206 199 202 204 205 207 202 189 186 191 191 187 184 184 185 186 181 174 168 161 172 198 191 187 181 176 175 170 168 167 164 161 156 149 143 134 124 118 113 110 105 98 94 94 88 70 53 43 30 17 10 4 1 2 6 12 15 16 15 18 22
193 192 197 205 211 215 218 217 216 214 205 196 201 243 157 120 122 147 205 216 220 228 223 214 203 196 197 200 202 203 192 180 181 186 188 186 188 192 195 193 187 181 175 167 157 177 189 189 179 175 177 175 174 173 171 171 168 163 159 150 137 127 121 121 120 116 113 105 91 66 48 38 22 7 358 354 355 358 3 9 12 13 13 13 17
198 201 205 211 220 225 221 211 207 208 204 198 199 214 199 179 164 145 190 211 210 209 204 205 207 199 195 195 197 197 183 176 178 183 185 188 191 196 201 199 193 188 183 174 155 159 182 190 182 179 181 180 179 177 177 178 178 178 175 169 158 144 135 140 144 142 140 117 90 67 50 33 12 358 352 351 354 357 1 6 10 11 12 11 12
198 205 207 205 211 214 201 188 185 189 198 201 205 215 221 227 220 203 190 202 200 187 180 191 213 213 201 195 192 188 181 178 180 183 186 190 195 199 202 204 202 199 194 186 166 161 179 188 187 186 186 185 184 182 183 184 184 185 185 183 177 163 156 168 174 168 159 144 113 74 34 13 2 355 352 351 352 355 358 2 4 4 8 7 4
197 200 196 186 180 181 182 183 182 181 192 201 208 217 230 245 236 211 195 195 190 178 174 182 207 219 205 195 190 185 184 187 186 186 190 195 201 204 207 210 211 212 211 209 198 180 181 186 190 193 190 189 189 186 187 188 190 192 191 190 190 184 182 186 188 180 169 165 151 17 357 358 358 353 351 348 347 351 354 356 356 357 0 1 359
194 183 181 179 177 182 188 191 194 195 199 208 215 219 224 233 227 204 194 193 186 177 176 182 197 213 203 192 188 185 187 190 190 190 194 200 206 209 212 216 220 222 222 222 221 210 193 188 191 195 195 195 196 194 193 193 196 199 199 199 200 198 193 189 189 185 175 180 251 331 345 352 355 351 347 343 341 344 347 348 349 350 354 354 354
183 177 183 189 192 197 199 195 199 207 216 223 227 220 216 217 211 201 196 193 189 188 193 201 203 207 203 195 190 189 191 191 192 196 199 204 210 215 219 223 225 228 227 224 222 219 210 200 195 195 197 200 203 205 204 204 204 205 206 209 205 195 188 185 186 187 182 194 268 323 342 353 354 349 346 342 340 340 339 341 343 346 351 351 351
178 183 195 202 206 205 205 208 210 216 228 235 229 215 213 212 209 210 206 197 195 201 211 218 216 211 206 201 196 193 194 193 193 198 203 209 216 223 228 232 232 233 230 225 221 220 222 217 204 197 199 203 208 212 213 213 215 212 202 187 181 183 185 184 183 182 183 198 251 325 345 358 355 352 353 348 345 344 341 342 342 343 347 347 345
185 194 201 207 218 216 214 218 217 221 232 243 243 228 222 223 222 219 216 209 205 204 209 216 217 213 207 204 202 199 198 200 203 206 209 212 219 228 238 244 242 238 232 225 221 220 223 222 210 202 202 205 209 215 218 217 219 217 203 180 168 172 182 185 183 179 179 197 246 320 359 18 8 2 5 354 346 344 340 339 337 337 339 338 336
205 213 224 228 233 234 231 227 222 225 233 241 253 258 242 233 232 227 219 218 216 208 207 210 210 210 209 208 209 209 209 214 218 220 219 216 217 221 228 239 245 241 231 222 218 219 221 221 215 207 203 203 207 213 215 210 206 207 204 192 180 177 181 184 184 183 181 189 207 177 108 73 30 5 354 341 338 337 335 334 332 331 333 334 334
234 236 241 242 246 250 248 242 232 231 231 232 242 260 261 249 254 252 225 218 221 221 219 218 212 210 213 213 215 216 216 219 223 226 228 226 226 226 226 228 232 231 224 218 215 217 218 218 215 209 204 204 206 208 207 207 208 206 201 195 187 182 183 185 186 190 191 188 188 181 167 147 2 338 327 327 331 331 329 330 329 330 330 330 330
251 253 251 249 252 254 253 252 245 236 230 230 239 253 259 260 268 267 236 218 222 228 231 231 225 222 224 227 229 231 231 230 229 228 230 231 234 239 239 236 232 226 218 214 215 217 218 217 216 211 206 207 211 212 212 215 216 211 202 196 189 180 180 182 184 191 195 188 190 193 187 223 314 316 318 323 327 324 323 324 325 325 326 325 326
230 237 241 245 249 251 255 259 256 249 243 242 248 255 258 259 262 263 245 227 225 231 238 239 236 234 235 237 241 244 242 240 237 236 238 240 241 243 245 246 244 237 227 220 220 221 223 224 222 216 213 215 217 216 218 218 216 212 206 201 193 185 182 183 183 190 195 193 195 194 192 219 279 306 318 324 323 321 323 323 324 326 328 331 332
138 146 165 174 197 232 254 265 265 263 260 258 257 258 258 256 255 254 250 241 238 240 244 245 244 245 247 249 251 252 251 250 249 249 250 250 249 246 244 244 245 245 243 240 236 233 231 229 227 224 224 226 225 222 222 222 218 214 208 203 199 194 191 191 193 194 194 193 193 192 196 212 259 305 321 327 326 328 330 328 328 334 339 343 344
117 112 102 97 99 112 178 267 297 296 289 281 273 267 262 257 253 251 249 248 248 250 251 251 250 250 253 255 255 255 257 260 261 263 263 261 259 255 251 246 243 242 244 247 248 247 245 240 235 235 236 236 236 235 234 230 222 213 204 201 201 199 197 199 201 197 191 188 191 199 203 213 272 314 326 331 333 336 337 333 336 345 348 349 348
99 91 80 75 72 70 74 72 58 37 6 334 305 287 275 266 258 253 250 251 253 255 258 259 258 256 255 257 257 258 260 263 265 267 267 266 262 259 257 254 248 244 241 242 244 246 248 248 245 248 251 249 249 253 249 238 227 219 210 204 201 198 197 199 197 191 186 186 195 210 205 219 293 323 331 334 336 340 340 336 345 351 349 348 345
78 74 68 62 61 58 57 63 70 65 41 358 316 300 290 280 270 260 256 256 257 259 261 263 264 264 262 261 261 263 266 267 269 270 269 268 266 262 260 259 255 250 244 241 241 242 245 248 250 254 258 258 259 261 255 241 230 226 222 213 203 197 194 188 181 180 184 186 196 202 193 237 306 325 332 332 335 339 334 320 343 351 348 346 343
71 68 63 55 51 48 47 51 57 55 43 14 339 311 293 286 281 274 266 263 263 264 264 264 264 264 265 265 265 266 267 268 269 270 269 267 265 264 264 264 262 258 253 250 249 248 249 250 252 254 257 259 261 259 251 240 230 223 215 204 195 191 186 175 171 182 191 189 194 197 188 273 307 315 325 328 330 333 319 282 330 347 348 345 342
58 54 49 44 41 38 37 38 39 38 33 21 9 349 323 304 290 283 278 271 268 268 268 268 268 268 267 268 268 268 268 268 269 269 269 267 265 264 264 264 263 261 260 259 258 257 257 257 257 256 255 255 254 248 239 234 226 216 203 189 182 186 182 170 175 196 199 194 196 203 221 308 294 307 323 327 327 326 306 269 325 340 341 338 335
45 40 35 33 32 29 29 29 25 24 24 20 11 360 350 338 320 306 295 284 276 272 272 274 277 278 277 275 275 275 274 273 273 272 272 273 270 264 262 262 261 260 260 260 259 259 259 258 256 254 249 246 242 235 225 217 209 205 199 187 182 190 190 184 193 197 195 200 206 210 270 297 272 308 325 327 323 316 287 289 324 329 331 330 326
31 26 18 17 17 16 18 19 13 9 12 14 11 2 353 346 338 329 315 302 290 280 277 276 278 284 289 287 280 279 279 278 277 277 277 277 273 269 267 263 258 258 261 262 261 261 259 255 251 246 240 237 232 221 208 198 192 194 199 197 201 212 209 203 200 192 187 205 209 213 270 255 257 310 327 331 326 305 266 302 318 323 328 329 323